Tracking 31027 objects as of 19-Jul-2025
HD Live streaming from Space Station
objects crossing your sky now

SL-8 DEB

Track SL-8 DEB now!
10-day predictions


NORAD ID: 1591
Int'l Code: 1965-073H
Perigee: 1,379.8 km
Apogee: 1,623.0 km
Inclination: 56.1 °
Period: 115.9 minutes
Semi major axis: 7872 km
RCS: 0.0613 m2 (small)
Launch date: September 18, 1965
Source: Commonwealth of Independent States (former USSR) (CIS)
Launch site: TYURATAM MISSILE AND SPACE COMPLEX (TTMTR)

Note: This is SATELLITE DEBRIS
Your satellite tracking list
ATLAS 2A CENTAUR R/B
Track 1 satellite(s)




NASA's NSSDC Master Catalog

Two Line Element Set (TLE):
1 01591U 65073H   25199.32719483 -.00000169  00000-0 -52412-3 0  9995
2 01591  56.0586 318.4460 0154452 245.7254 141.6821 12.42921534707217
Source of the keplerian elements: AFSPC